Location: Northcutt
(34.7304°N, 84.4305°W)
Time: 09:19:11
(UTC+00:00)

A-11 Canister half - Pass Details

Date: 11 October 2022
Orbit: 1524 x 1685 km, 47.3° (Epoch: 30 November)

Event Time Altitude Azimuth Distance (km) Brightness Sun altitude
Rises 20:20:14 0° 272° (W) 4,679 12.2 31.0°
Reaches altitude 10° 20:23:33 10° 280° (W) 3,690 11.7 30.4°
Maximum altitude 20:32:10 41° 348° (NNW) 2,090 9.8 29.0°
Drops below altitude 10° 20:40:53 10° 57° (ENE) 3,723 10.6 27.5°
Sets 20:44:16 0° 65° (ENE) 4,724 11.0 26.9°
